Location: Les Thiberg�res
(47.8554°N, 1.0978°W)
Time: 04:17:13
(UTC+00:00)

Meteor 2-10 Rocket - Pass Details

Date: 17 February 2020
Orbit: 734 x 884 km, 81.2° (Epoch: 09 April)

Event Time Altitude Azimuth Distance (km) Brightness Sun altitude
Exits shadow 04:27:14 58° 162° (SSE) 927 3.8 -27.5°
Maximum altitude 04:28:14 75° 99° (E) 823 3.6 -27.4°
Drops below altitude 10° 04:33:27 10° 15° (NNE) 2,319 6.3 -26.5°
Sets 04:35:46 0° 14° (NNE) 3,231 7.1 -26.1°
